Theta_e
285 281 278 278 280 280 279 278 275 276 282 279 277 279 280 282 281 281 280 280 280 281 281 281 282 281 282 283 283 285 286 288 291 294 298 302 304 307 307 308 308 308 310 310
283 280 283 284 283 281 279 277 276 279 281 279 278 277 279 281 280 280 280 280 280 280 280 281 281 280 280 281 282 284 285 286 288 291 297 301 303 305 305 305 305 306 306 307
279 282 285 283 281 280 279 278 278 278 280 279 277 276 277 280 281 282 281 280 280 279 279 279 280 279 279 280 280 282 284 284 285 287 294 298 299 300 298 299 301 303 303 304
281 283 282 281 281 280 278 282 281 280 276 272 277 268 274 276 279 280 279 279 279 279 280 279 279 279 279 280 280 281 283 284 285 285 286 289 292 292 295 296 297 298 299 300
280 280 281 281 281 282 280 282 280 280 276 274 275 270 273 276 276 277 278 278 278 279 279 279 279 280 280 280 280 281 282 283 283 283 283 283 284 288 291 292 293 294 295 297
281 283 282 282 283 283 283 278 277 276 275 263 273 270 270 274 276 275 277 277 278 278 278 279 280 280 280 280 280 281 281 282 283 282 282 281 281 282 283 285 287 290 291 293
279 280 281 283 280 282 279 274 264 264 262 262 272 271 271 275 276 275 275 277 277 278 278 278 279 279 280 280 280 282 282 282 283 283 283 282 281 281 281 282 284 285 287 289
274 272 279 282 279 278 279 275 266 260 261 264 273 267 273 277 277 277 277 277 278 278 278 278 279 279 279 280 281 282 283 283 284 285 284 283 283 282 281 281 281 283 283 285
273 274 279 281 281 279 278 272 276 263 258 262 268 273 276 277 274 275 275 275 275 276 278 278 279 279 280 281 282 283 284 284 284 285 286 285 285 284 282 282 281 281 283 284
277 272 278 279 280 280 279 279 270 266 259 257 265 268 270 274 273 274 273 273 274 276 277 278 279 280 280 282 283 284 284 283 284 284 285 285 285 284 283 282 281 280 282 283
277 276 274 277 275 275 275 271 272 272 268 260 258 266 273 274 274 272 272 274 274 275 277 278 279 279 281 281 281 281 281 281 281 282 282 282 283 283 283 282 280 280 280 281
279 275 269 272 275 274 276 275 273 265 264 265 264 266 277 274 274 274 273 275 275 276 276 277 278 278 279 279 279 278 279 279 279 280 279 279 279 280 280 281 280 280 279 280
279 270 262 268 272 274 273 276 274 266 265 265 260 266 275 275 274 273 272 274 275 277 277 277 277 277 277 276 276 276 277 277 278 277 277 277 277 278 278 277 278 279 279 279
281 269 268 269 270 272 272 273 273 268 262 262 267 264 271 273 271 271 273 273 274 275 276 276 275 276 275 275 273 273 274 276 276 275 274 274 274 274 275 275 275 276 277 278
277 268 266 266 270 270 271 272 272 268 269 267 267 267 267 266 264 265 273 275 275 274 274 275 275 275 274 273 272 270 271 273 274 272 270 269 270 271 271 271 272 274 274 275
274 269 269 265 269 269 268 272 271 272 266 266 267 269 272 272 272 270 271 272 272 271 271 273 274 273 274 271 270 268 267 268 271 268 266 267 267 268 267 268 270 271 272 274
274 270 268 264 266 264 264 270 271 269 266 270 266 272 271 267 271 264 269 268 267 267 267 270 269 268 272 266 270 264 264 267 264 264 264 265 266 266 266 266 267 268 270 272
271 270 267 261 260 258 271 269 271 272 271 269 267 266 270 263 271 271 269 266 266 264 264 266 268 265 265 266 264 264 264 263 262 261 261 262 265 265 265 265 265 267 269 270
273 271 262 264 257 266 269 269 269 268 269 271 271 270 270 270 271 270 271 265 263 261 260 260 264 261 257 258 260 261 261 261 261 261 261 262 262 263 263 263 264 266 268 270
271 271 271 257 258 260 269 269 271 272 266 271 272 270 270 270 265 266 263 266 262 259 257 257 257 256 256 259 260 262 260 260 259 262 264 263 261 262 263 264 265 267 268 270
266 266 267 262 260 264 271 272 272 266 270 270 272 272 270 268 268 266 264 263 262 260 258 256 255 256 256 256 260 260 261 259 262 264 264 264 263 263 264 266 267 268 268 269
267 265 261 257 258 264 272 271 269 272 271 273 271 271 271 270 268 266 265 264 263 259 258 258 260 258 256 255 264 262 262 262 263 263 263 262 262 264 266 265 266 267 268 268
269 270 267 268 269 269 275 269 268 267 270 271 271 270 271 269 267 266 265 265 265 264 265 263 262 263 262 262 264 262 262 262 262 261 260 261 262 264 264 264 265 265 266 266
267 264 266 267 270 270 273 267 268 269 270 271 271 269 268 266 266 266 265 265 265 264 263 262 261 261 261 262 262 261 262 262 259 258 259 261 262 262 263 263 264 264 264 264
268 269 266 267 270 270 271 270 270 270 270 268 267 266 266 266 265 265 264 264 263 263 262 261 260 260 260 260 260 259 260 259 257 258 259 260 261 260 261 262 262 264 265 266
269 269 270 271 273 272 273 274 271 269 268 268 266 264 265 265 264 264 263 262 262 260 260 258 258 258 258 257 257 257 256 255 254 257 259 259 259 259 260 260 260 265 266 268
Wind_Speed
5 9 5 3 4 4 6 5 3 2 1 4 3 6 7 8 8 8 7 7 8 8 7 6 8 9 12 14 15 16 17 17 13 11 11 7 9 8 8 9 11 11 8 4
7 5 3 5 6 7 4 4 1 1 3 1 5 6 4 6 4 4 5 7 8 8 9 8 9 10 10 9 13 16 16 17 14 11 10 5 8 6 8 8 10 11 11 8
5 5 3 4 4 5 2 5 2 1 3 2 4 4 5 3 3 7 7 5 5 6 8 8 9 7 8 10 10 12 13 14 15 17 11 9 6 7 9 12 11 11 12 10
5 1 3 4 4 2 3 2 3 2 2 1 4 4 1 2 8 8 9 9 7 7 7 6 7 7 7 7 7 7 9 12 13 16 14 15 9 8 7 8 8 10 13 13
1 2 3 4 2 1 3 3 3 2 3 3 7 5 4 1 7 7 10 10 9 8 7 8 8 6 6 6 7 8 8 9 10 11 12 10 12 8 8 8 10 10 12 12
3 1 3 2 2 2 5 5 5 4 2 5 4 3 3 2 2 4 6 9 9 9 9 9 7 5 5 6 7 6 8 8 9 9 10 11 10 11 10 12 10 10 8 9
3 2 1 2 3 1 2 4 4 7 7 5 4 3 4 5 4 2 3 7 8 8 9 9 9 8 6 6 5 5 7 7 7 9 9 10 11 10 9 9 8 10 9 9
6 3 1 2 1 3 3 3 7 6 2 5 3 7 5 7 6 2 2 5 6 7 7 8 9 8 5 5 5 5 4 3 5 6 7 7 7 5 6 8 7 7 7 7
5 1 1 4 2 2 2 4 3 9 2 5 3 5 2 6 3 4 5 4 8 9 11 10 10 8 6 6 7 7 8 4 6 6 6 5 6 7 7 9 8 7 8 9
6 6 1 1 1 5 1 5 4 5 2 4 5 7 6 7 2 5 7 9 8 8 10 11 11 10 7 7 6 7 8 7 10 11 8 6 5 6 7 7 9 10 10 12
5 5 1 2 4 7 1 2 5 5 5 6 2 8 6 8 6 2 4 5 7 7 9 9 8 7 7 6 7 8 9 11 12 11 11 9 9 8 8 7 8 8 8 9
3 6 4 4 2 1 2 6 6 7 6 2 3 10 3 9 7 4 2 4 5 4 6 7 9 9 10 9 10 10 9 10 10 9 10 11 11 11 11 10 10 9 9 9
7 1 4 8 6 0 5 5 5 5 4 7 7 8 4 6 4 2 3 4 3 6 8 8 9 9 8 9 10 10 11 10 10 11 12 12 13 12 12 12 13 11 10 10
6 3 8 10 5 6 6 7 6 7 5 5 10 4 8 9 3 0 3 2 5 7 8 7 7 7 8 8 10 10 11 11 11 11 11 12 13 13 12 11 11 11 10 9
4 5 3 2 3 2 1 5 10 10 10 8 5 10 7 7 6 5 4 4 7 7 8 8 8 7 6 9 9 10 10 11 11 11 11 11 11 11 11 12 11 11 11 9
1 2 3 3 4 5 3 6 8 10 3 9 3 15 7 5 7 4 4 4 5 4 5 6 7 8 8 9 8 8 9 8 10 8 8 8 10 10 11 12 12 10 11 11
6 8 4 5 4 4 7 15 19 7 5 10 9 12 6 3 6 6 6 5 5 2 2 4 3 3 6 5 8 7 7 7 6 6 7 9 9 10 11 11 11 11 11 11
7 6 3 3 3 3 7 2 3 13 5 10 2 5 7 6 4 6 5 7 5 3 3 4 3 3 4 4 6 6 6 6 6 5 5 6 8 9 10 11 11 11 9 10
1 6 5 6 5 7 4 7 9 10 10 14 14 7 6 5 4 5 7 4 6 5 4 3 1 2 4 4 6 6 6 6 6 6 6 5 5 9 9 10 10 10 11 10
4 5 4 4 7 11 6 4 5 5 8 10 14 11 10 8 2 5 5 5 3 3 3 1 2 2 4 6 6 6 6 6 6 8 10 7 5 6 9 8 9 8 8 10
4 3 7 4 5 11 6 8 6 8 10 7 12 10 12 8 5 6 7 3 4 5 3 3 1 2 4 5 5 5 5 5 8 10 10 10 9 10 9 9 8 9 9 9
10 10 6 4 2 12 12 6 11 7 3 9 7 9 9 6 9 6 7 5 5 3 2 2 2 3 4 4 5 5 6 6 8 9 10 10 9 8 8 11 9 9 8 8
5 9 10 13 11 0 22 4 3 4 6 7 9 6 9 8 7 7 5 5 5 5 3 3 2 4 2 2 6 8 7 8 9 9 9 10 10 9 10 10 10 8 8 7
5 3 4 3 5 7 18 2 2 4 5 4 5 7 8 8 7 6 5 6 5 4 3 2 2 3 4 4 6 6 7 8 7 8 9 9 9 10 9 8 8 7 7 7
5 13 8 6 3 3 6 9 9 7 6 6 5 5 9 8 7 7 7 6 5 5 3 3 2 2 3 4 5 4 6 5 6 6 8 8 7 8 8 8 7 8 9 9
8 10 10 11 12 7 7 19 14 14 13 12 11 7 6 8 9 8 7 6 5 4 3 3 2 2 3 4 5 5 4 3 3 7 6 6 6 7 7 7 8 12 15 18
Wind_Direction
11 68 98 117 59 108 110 107 152 250 87 18 359 307 347 359 39 41 29 14 11 12 334 1 360 359 7 10 5 3 360 355 355 353 349 350 354 10 8 6 5 3 359 15
29 92 167 117 85 96 91 112 18 307 4 61 0 310 1 20 25 35 19 8 13 358 357 352 3 1 10 1 4 10 5 358 357 353 347 344 348 16 1 5 6 3 4 359
114 151 106 123 92 104 51 132 162 101 10 47 336 338 21 8 50 32 15 359 15 349 341 350 359 359 355 13 2 7 5 4 5 356 354 358 18 15 12 6 4 5 5 359
90 350 116 102 88 114 128 141 105 123 78 123 24 248 89 14 39 24 1 358 343 345 349 343 352 355 355 359 349 5 13 17 13 8 6 9 12 11 358 348 354 358 7 9
170 103 93 80 103 42 134 95 99 102 94 100 352 72 250 353 29 4 352 353 350 346 343 332 336 344 341 3 4 355 0 22 20 21 21 16 9 1 344 351 356 3 1 1
101 42 61 123 95 68 134 92 59 55 70 44 257 122 276 53 55 0 342 348 352 348 335 322 312 329 339 357 13 23 4 10 2 29 23 25 15 356 2 356 2 358 359 350
25 360 3 86 89 78 99 77 352 1 13 206 341 297 240 114 88 80 306 332 333 341 345 329 332 326 334 358 14 18 37 17 353 20 15 23 9 3 359 357 351 351 347 351
148 303 141 9 111 175 73 139 147 205 227 265 354 247 219 144 122 112 316 314 333 337 314 333 336 320 308 342 7 1 61 46 11 31 16 355 15 358 348 350 349 350 343 340
143 108 3 52 28 72 196 60 151 102 53 52 248 284 242 172 79 3 327 320 360 352 351 336 337 330 322 354 13 5 341 329 32 6 357 12 360 352 346 345 349 349 344 350
197 103 7 92 48 42 94 145 77 3 99 282 281 278 238 200 14 342 349 8 346 343 342 337 337 336 29 27 6 359 340 345 27 4 3 349 345 340 346 352 354 353 346 350
152 109 241 86 202 173 92 30 48 108 133 169 261 256 226 150 159 70 350 333 345 346 341 340 350 24 33 24 22 17 3 9 12 2 350 359 351 355 349 357 351 350 342 345
192 124 153 198 256 208 218 182 148 129 237 194 142 273 132 137 149 169 6 344 338 360 355 18 19 20 18 10 12 13 6 12 8 4 5 5 5 5 356 354 343 344 346 343
188 304 64 352 352 2 208 188 116 113 87 201 138 259 173 148 112 46 43 3 359 38 28 16 22 19 14 3 8 6 5 6 9 15 13 11 7 4 2 355 346 343 341 342
90 88 156 186 187 139 189 181 163 132 129 183 228 221 215 217 222 359 21 352 66 53 37 18 16 7 11 8 11 7 3 2 4 13 18 9 360 357 354 351 348 343 338 344
124 183 115 296 322 17 238 179 174 195 195 182 250 213 217 209 207 205 218 130 74 51 29 19 12 3 12 5 9 4 5 5 6 9 9 360 349 350 347 349 348 344 343 344
23 137 117 347 357 44 303 246 208 221 199 276 274 277 177 128 126 151 167 110 94 49 12 3 0 1 4 2 0 356 356 356 5 3 354 347 354 348 346 342 342 343 342 345
143 138 113 256 355 352 313 230 209 184 192 181 212 240 155 173 186 193 174 144 145 173 288 336 342 346 354 353 355 343 336 339 352 352 342 348 347 346 343 336 336 343 341 335
133 105 57 162 18 294 237 151 214 217 203 206 221 213 176 192 196 171 177 162 162 196 256 298 330 330 341 340 345 326 333 339 337 333 330 334 343 341 336 336 336 332 332 330
74 132 114 153 200 302 253 194 170 166 254 199 207 168 168 151 103 247 169 153 165 185 231 242 256 258 309 330 321 316 321 323 331 336 328 324 329 335 331 329 325 322 325 326
79 52 115 143 172 213 235 168 151 122 287 186 173 172 161 146 190 241 157 153 183 257 238 205 322 311 348 325 322 321 320 327 342 337 330 323 319 319 317 309 313 312 307 311
122 63 180 170 223 286 197 164 167 104 238 157 172 166 156 189 190 143 138 145 179 184 161 161 198 243 267 298 310 326 314 340 329 328 329 331 329 320 310 311 315 313 313 313
157 147 174 92 123 267 150 82 169 196 40 152 154 163 170 141 137 148 156 154 146 138 81 58 345 302 293 311 325 321 340 330 330 331 328 326 323 323 325 322 317 318 319 320
207 183 178 186 205 176 179 161 164 136 147 176 153 154 152 151 169 161 162 163 161 164 154 149 290 317 320 319 341 335 333 332 334 331 324 323 323 327 331 328 327 322 328 325
251 172 162 119 208 197 207 31 202 161 162 134 127 141 147 158 164 162 177 178 172 162 176 191 280 312 321 342 335 324 325 335 331 319 322 325 328 328 330 328 325 324 323 323
178 142 161 268 232 41 241 209 179 161 137 121 104 145 158 146 163 171 182 167 175 165 180 209 234 284 304 326 312 309 329 330 329 319 317 322 324 325 323 323 320 318 316 306
192 167 175 213 184 165 202 192 168 160 171 163 148 137 147 164 172 169 179 160 162 167 197 234 225 271 283 293 292 300 298 311 319 320 325 324 321 321 318 316 314 316 321 323